Flag for Russia Weather past 2 weeks in Khanty-Mansiysk, Russia

Now
57 °F

Sunny.


Feels Like: 55 °F
Forecast: 49 / 60 °F
Wind: 10 mph from South

Location: Hanty-Mansijsk

Current Time: Jul 6, 2015 at 12:37:55 PM

Latest Report: Jul 6, 2015 at 12:00 PM


Visibility: 10 mi

Pressure: 29.47 "Hg

Humidity: 51%

Dew point: 39 °F

Location of Khanty-MansiyskLocation

Historic Weather in Khanty-Mansiysk — Graph

°F

Khanty-Mansiysk temperature yesterday

Maximum temperature yesterday: 59 °F (at 3:30 PM)
Minimum temperature yesterday: 45 °F (at 12:00 AM)
Average temperature yesterday: 51 °F

Past Weeks' High & Low Weather Summary

 TemperatureHumidityPressure
High88 °F (Jun 23, 4:00 PM)94% (Jun 23, 5:30 AM)30.27 "Hg (Jun 23, 5:30 AM)
Low45 °F (Jul 4, 3:00 AM)8% (Jun 29, 9:30 PM)29.18 "Hg (Jul 3, 6:00 AM)
Average65 °F67%29.79 "Hg
* Reported Jun 21 11:00 AM — Jul 6 11:30 AM, Khanty-Mansiysk, Weather by CustomWeather, © 2015

Note: Actual official high and low records may vary slightly from our data, if they occured in-between our weather recording intervals... More about our weather records

Advertising

Khanty-Mansiysk weather history for previous 24 hours

 ConditionsComfort  
Time TempWeatherWind HumidityBarometerVisibility
11:30 AM
Mon, Jul 6
57 °FSunny.10 mph51%29.47 "Hg10 mi
11:00 AM57 °FSunny.6 mph55%29.47 "Hg10 mi
10:30 AM57 °FSunny.8 mph55%29.47 "Hg10 mi
10:00 AM57 °FSunny.8 mph55%29.50 "Hg10 mi
9:30 AM59 °FSunny.8 mph55%29.50 "Hg10 mi
9:00 AM59 °FSunny.8 mph55%29.50 "Hg10 mi
8:30 AM57 °FSunny.8 mph59%29.50 "Hg10 mi
8:00 AM55 °FSunny.6 mph63%29.50 "Hg10 mi
7:30 AM55 °FSunny.6 mph63%29.50 "Hg10 mi
7:00 AM55 °FSunny.6 mph63%29.50 "Hg10 mi
6:30 AM54 °FSunny.3 mph67%29.50 "Hg10 mi
6:00 AM54 °FSunny.3 mph67%29.50 "Hg10 mi
5:30 AM52 °FSunny.3 mph67%29.53 "Hg10 mi
5:00 AM52 °FSunny.3 mph67%29.53 "Hg10 mi
4:30 AM50 °FSunny.6 mph71%29.53 "Hg10 mi
4:00 AM48 °FSunny.6 mph76%29.53 "Hg10 mi
3:30 AM48 °FClear.8 mph71%29.53 "Hg10 mi
3:00 AM48 °FClear.6 mph71%29.53 "Hg10 mi
2:30 AM50 °FClear.8 mph67%29.53 "Hg10 mi
2:00 AM48 °FPassing clouds.6 mph71%29.53 "HgN/A
1:30 AM50 °FClear.3 mph67%29.53 "Hg10 mi
1:00 AM50 °FClear.6 mph67%29.53 "Hg10 mi
12:30 AM50 °FClear.6 mph67%29.53 "Hg10 mi
12:00 AM50 °FClear.3 mph67%29.53 "Hg10 mi
11:30 PM
Sun, Jul 5
50 °FClear.1 mph71%29.53 "Hg10 mi
11:00 PM50 °FClear.1 mph67%29.53 "Hg10 mi
10:30 PM50 °FSunny.1 mph71%29.53 "Hg10 mi
10:00 PM50 °FSunny.1 mph67%29.53 "Hg10 mi
9:30 PM52 °FSunny.1 mph62%29.53 "Hg10 mi
9:00 PM55 °FSunny.3 mph51%29.53 "Hg10 mi
8:30 PM57 °FSunny.6 mph44%29.53 "Hg10 mi
8:00 PM55 °FScattered clouds.3 mph51%29.53 "HgN/A
7:30 PM55 °FScattered clouds.6 mph51%29.53 "HgN/A
7:00 PM57 °FScattered clouds.3 mph44%29.53 "HgN/A
6:30 PM57 °FScattered clouds.6 mph44%29.53 "HgN/A
6:00 PM57 °FScattered clouds.6 mph44%29.53 "HgN/A
5:30 PM57 °FScattered clouds.8 mph44%29.50 "HgN/A
5:00 PM57 °FScattered clouds.8 mph44%29.50 "HgN/A
4:30 PM57 °FScattered clouds.8 mph44%29.50 "HgN/A
4:00 PM57 °FScattered clouds.8 mph41%29.50 "HgN/A
3:30 PM59 °FScattered clouds.10 mph42%29.50 "HgN/A
3:00 PM57 °FScattered clouds.10 mph44%29.50 "HgN/A
2:30 PM57 °FScattered clouds.10 mph41%29.50 "HgN/A
2:00 PM55 °FScattered clouds.10 mph47%29.50 "HgN/A
1:30 PM55 °FScattered clouds.8 mph47%29.50 "HgN/A
1:00 PM54 °FScattered clouds.8 mph47%29.50 "HgN/A
12:30 PM54 °FScattered clouds.13 mph47%29.50 "HgN/A
12:00 PM54 °FScattered clouds.10 mph51%29.50 "HgN/A
Weather by CustomWeather, © 2015

See weather overviewHow to use our weather pages